Wind_Speed
4 6 3 2 1 3 2 2 4 4 2 6 3 9 12 15 1 4 6 8 10 13 11 7 6 8 8 9 9 11 9 6 4 3 5 7 11 13 14 12 11 13 14 16
5 3 2 2 2 1 3 3 3 4 2 3 6 11 5 7 5 7 6 8 10 11 13 10 8 8 9 10 9 9 10 7 5 7 9 10 11 11 11 11 11 11 14 14
5 2 2 2 1 2 3 2 2 3 7 1 7 4 4 3 3 3 8 9 9 11 12 11 11 10 9 8 8 8 10 9 7 8 9 10 12 13 13 13 12 12 12 14
3 1 1 2 3 3 1 1 1 4 5 3 5 4 3 3 3 3 8 10 9 10 9 9 9 8 9 9 8 8 8 9 9 10 11 12 13 14 15 16 16 15 14 15
1 2 2 3 2 1 2 2 1 1 2 2 2 3 6 2 3 0 5 7 9 10 10 10 8 7 8 8 8 7 8 8 9 10 11 12 13 14 14 14 15 15 15 16
2 2 1 1 1 0 3 3 3 3 2 2 1 4 5 4 4 3 2 6 8 11 10 8 9 8 7 8 8 7 6 6 7 9 10 12 13 14 15 15 15 14 15 16
4 1 2 1 1 0 6 5 4 5 4 4 1 1 8 3 3 4 3 6 8 8 9 10 10 10 10 11 11 9 7 7 8 9 10 11 13 15 17 18 18 18 18 17
3 5 3 4 3 1 4 2 4 4 2 5 4 6 5 3 4 7 9 8 6 6 6 7 8 9 9 9 9 9 10 10 11 10 10 11 12 14 16 18 19 20 20 20
3 3 1 5 2 2 1 3 1 3 1 2 4 7 6 3 3 8 11 15 13 4 2 4 5 6 8 8 11 12 12 12 13 14 13 14 14 15 16 18 19 20 21 22
2 4 3 1 2 6 2 4 3 3 2 5 5 5 5 5 8 6 6 9 13 7 4 7 8 8 9 10 11 13 15 17 18 18 18 18 18 18 19 18 19 20 22 22
3 3 3 1 2 4 2 1 4 2 3 4 3 6 5 6 8 9 3 9 15 14 9 3 5 7 8 9 12 15 18 21 22 22 23 23 23 23 22 22 22 23 24 24
1 4 3 6 3 1 2 3 5 3 4 4 2 7 4 5 5 13 1 9 16 13 8 2 4 7 10 12 16 20 22 23 24 25 25 26 27 27 27 26 25 24 25 25
5 1 3 8 3 1 3 4 4 3 2 7 3 6 1 2 5 6 12 18 18 2 8 2 6 11 15 18 21 24 25 26 27 29 29 30 30 30 31 31 31 30 28 28
7 4 7 7 6 3 4 5 5 6 3 8 13 24 11 10 12 20 24 26 17 6 2 7 11 15 20 23 24 26 28 29 30 31 31 32 32 32 31 32 33 32 31 30
2 5 5 7 7 5 11 12 11 13 16 13 30 18 18 10 13 26 20 11 7 1 7 11 18 22 25 27 28 29 30 31 32 32 31 31 33 33 33 31 30 31 32 32
1 4 2 5 7 12 17 13 16 20 20 21 24 28 16 18 5 6 4 3 3 4 12 18 21 24 28 30 31 32 32 31 30 29 28 28 28 29 30 32 32 32 33 33
6 4 2 6 2 5 10 15 18 5 5 8 9 7 2 3 8 9 7 9 9 12 19 21 23 26 29 29 30 32 31 31 29 28 27 27 27 29 30 32 33 33 33 33
5 5 2 5 2 5 4 2 6 9 5 7 6 4 2 9 18 18 13 17 11 21 19 20 26 31 32 32 31 29 28 29 28 27 26 25 26 29 31 32 33 33 34 32
12 5 4 3 4 9 9 3 2 5 2 4 5 10 16 21 24 14 13 15 20 20 22 27 30 32 34 32 29 29 27 27 28 27 26 25 26 29 31 32 33 33 35 33
2 7 5 2 3 6 3 3 8 2 4 4 8 12 18 22 12 11 26 17 21 24 29 32 33 32 27 29 26 27 28 27 27 28 28 27 28 30 31 31 32 32 34 34
3 2 12 10 7 7 4 9 8 4 5 9 14 20 20 12 22 32 26 25 28 30 32 34 29 23 22 23 24 27 29 30 29 28 29 29 30 31 32 32 32 32 31 31
4 4 4 4 6 11 16 10 4 8 25 22 25 27 23 30 31 32 31 31 33 34 28 22 23 24 26 25 24 26 29 28 28 29 29 29 29 30 32 32 33 32 33 32
3 5 3 7 5 11 23 7 23 25 25 24 25 30 32 34 35 36 36 36 34 27 22 22 22 24 25 25 25 28 29 29 30 31 32 32 32 31 31 32 33 33 34 31
4 3 4 3 0 14 28 32 36 40 38 41 40 35 34 35 34 37 39 39 26 21 21 21 23 25 27 28 28 29 30 29 29 31 32 33 35 36 35 33 33 34 34 32
6 3 4 7 13 20 24 28 36 38 37 39 39 39 37 34 34 23 21 18 22 23 24 26 28 30 32 32 33 33 33 32 30 29 30 33 33 34 36 38 36 35 36 31
10 6 4 10 18 15 25 32 29 30 32 29 30 28 25 27 26 27 25 28 28 28 31 32 34 32 33 33 34 35 34 31 29 29 29 30 32 34 36 37 40 39 38 36
Wind_Direction
22 67 92 166 88 114 125 215 244 263 293 327 247 290 311 338 52 83 73 28 18 18 8 346 332 334 340 347 352 6 19 27 11 323 303 298 304 299 300 304 303 295 291 293
26 83 202 117 103 157 219 253 294 282 296 324 334 311 313 16 52 88 62 35 18 11 20 18 351 335 337 347 345 355 1 358 336 311 303 304 307 307 309 313 310 299 299 298
113 117 107 57 19 261 220 205 3 256 321 69 310 328 2 19 77 67 53 41 27 14 10 12 14 8 354 339 351 344 348 348 334 326 318 312 309 308 307 302 301 301 295 291
72 25 89 182 206 188 35 189 71 319 24 294 10 276 315 337 328 29 43 37 18 3 356 355 354 359 4 6 351 339 337 336 333 325 318 313 310 310 308 306 303 300 294 291
218 192 205 186 209 188 228 30 318 133 123 41 8 70 267 296 215 62 32 20 12 6 3 0 352 345 347 341 339 340 342 342 334 331 326 323 318 317 312 309 307 305 301 297
180 232 220 228 313 288 331 96 65 60 86 28 179 126 273 200 195 148 61 30 21 22 26 24 25 21 8 352 336 330 338 337 325 323 324 321 318 314 310 310 306 302 300 298
352 335 323 4 329 78 33 40 338 352 5 228 7 106 250 234 171 132 110 43 39 43 46 49 52 47 39 34 32 23 10 356 343 335 330 323 320 316 312 308 304 300 296 292
83 332 23 353 52 87 40 91 143 251 260 280 312 241 261 226 124 112 75 48 38 45 57 58 56 50 45 37 35 30 22 12 7 1 354 345 333 325 320 315 311 307 302 297
31 319 45 45 29 51 27 42 154 87 340 24 249 286 295 152 131 126 77 37 25 25 53 76 74 57 46 34 24 18 11 3 355 351 345 339 334 327 320 317 316 311 307 303
170 333 34 5 89 39 81 152 41 12 316 275 283 277 246 199 196 165 82 26 12 1 165 104 80 61 46 38 29 19 12 5 358 353 350 346 340 332 325 320 315 309 305 304
118 103 285 280 182 173 73 61 60 138 173 216 290 261 219 221 193 168 107 29 10 354 196 86 58 37 30 24 17 12 6 0 355 351 347 343 339 335 330 324 318 312 308 305
46 131 282 242 109 72 150 190 158 138 254 232 195 270 343 298 203 162 8 349 350 339 183 119 52 36 20 11 4 358 353 349 346 341 338 334 331 328 325 321 317 313 310 306
184 23 0 335 27 32 197 193 168 123 66 211 196 259 209 46 85 263 314 336 344 262 160 97 19 15 9 1 353 348 344 341 337 335 332 329 326 323 320 318 315 312 310 306
165 172 186 223 233 149 218 201 203 176 165 267 234 271 261 283 299 302 309 319 325 165 55 8 4 1 352 346 342 339 336 333 331 329 329 327 324 321 317 312 311 309 309 305
123 204 220 250 260 256 260 252 236 228 240 242 273 258 284 280 289 298 304 296 155 113 3 1 353 346 341 338 335 333 331 329 327 325 324 321 319 319 318 317 314 311 308 308
75 260 92 274 252 256 271 265 248 245 254 259 267 280 274 291 309 313 304 193 206 336 346 340 338 337 335 329 327 325 324 323 323 322 321 322 320 317 316 317 318 316 314 312
170 161 67 272 138 305 284 245 234 228 200 212 241 262 5 344 318 320 322 282 255 321 331 324 319 320 319 318 316 318 317 319 320 319 317 319 318 316 316 317 318 320 317 312
163 127 173 280 23 278 264 210 208 204 236 232 289 321 4 353 340 326 317 299 270 310 299 310 315 313 311 310 309 311 310 312 314 317 315 317 309 309 313 315 317 318 319 314
210 159 245 249 201 296 291 317 139 182 77 13 29 6 346 341 331 305 312 299 288 299 299 304 309 307 304 303 306 308 308 309 312 314 317 317 315 313 314 315 317 317 317 313
87 219 202 146 242 254 255 342 343 141 222 43 23 347 326 318 311 299 300 285 291 298 297 298 303 304 299 300 301 302 308 311 314 316 316 313 313 314 315 317 319 317 320 317
102 166 226 238 251 274 335 328 322 241 304 331 329 314 297 282 283 290 294 295 301 302 302 301 301 300 300 298 298 299 306 310 315 316 313 309 309 311 313 316 317 317 318 316
181 173 204 231 250 260 26 6 8 316 315 313 313 309 298 303 301 293 298 305 302 297 298 295 296 296 299 303 306 305 306 313 313 312 311 313 314 314 315 316 316 316 320 318
266 206 201 187 232 309 332 336 315 313 302 302 306 302 296 298 298 293 290 303 299 294 293 300 302 305 307 308 310 307 308 312 311 309 310 311 312 312 314 316 318 318 318 316
294 227 240 310 172 318 313 310 309 307 302 305 307 302 299 292 295 293 292 296 285 287 299 308 309 307 307 308 305 304 308 310 307 303 302 303 305 309 311 311 312 314 314 313
220 305 246 268 287 292 301 303 303 300 299 299 302 304 304 299 300 308 307 296 288 291 296 302 302 302 300 305 304 304 308 310 304 297 294 296 302 305 306 306 306 308 309 309
218 227 199 268 281 284 293 305 316 312 306 299 307 311 317 316 308 309 308 297 300 298 296 296 301 305 306 305 304 306 309 308 304 297 293 296 298 300 301 300 300 301 305 308
Height
1528 1535 1540 1539 1539 1540 1542 1545 1545 1538 1533 1533 1526 1525 1514 1508 1507 1509 1511 1512 1512 1511 1510 1509 1509 1509 1508 1506 1505 1503 1501 1500 1499 1499 1499 1500 1500 1501 1500 1499 1499 1499 1499 1498
1534 1538 1538 1538 1539 1541 1545 1543 1540 1534 1533 1535 1528 1522 1515 1511 1511 1511 1512 1512 1511 1511 1510 1509 1508 1507 1507 1506 1504 1503 1501 1500 1499 1499 1498 1497 1498 1498 1498 1497 1497 1497 1497 1496
1536 1538 1538 1539 1541 1543 1542 1539 1537 1541 1537 1535 1534 1520 1516 1513 1513 1513 1512 1512 1512 1512 1510 1509 1507 1506 1505 1504 1502 1501 1500 1499 1498 1498 1497 1496 1495 1495 1495 1494 1494 1494 1494 1494
1539 1539 1539 1540 1541 1541 1535 1536 1538 1541 1542 1542 1538 1535 1519 1517 1514 1513 1512 1512 1512 1512 1510 1508 1507 1505 1504 1502 1501 1500 1499 1498 1497 1496 1495 1494 1493 1492 1491 1490 1490 1489 1489 1489
1541 1541 1540 1539 1537 1537 1536 1537 1538 1541 1546 1545 1540 1550 1522 1518 1513 1512 1512 1512 1512 1511 1509 1507 1505 1505 1503 1502 1500 1498 1498 1497 1496 1495 1494 1492 1490 1489 1488 1487 1486 1486 1485 1484
1541 1539 1538 1536 1536 1536 1536 1538 1542 1548 1548 1549 1536 1546 1524 1518 1512 1511 1512 1511 1511 1510 1509 1508 1507 1505 1504 1502 1499 1498 1496 1494 1493 1492 1491 1490 1489 1487 1485 1484 1483 1482 1481 1480
1542 1539 1538 1538 1537 1537 1537 1541 1557 1552 1560 1548 1541 1546 1521 1510 1510 1511 1511 1511 1510 1510 1509 1508 1507 1505 1504 1502 1500 1499 1497 1494 1492 1491 1489 1487 1486 1485 1484 1482 1479 1478 1476 1476
1556 1549 1539 1540 1540 1542 1545 1545 1565 1564 1569 1559 1550 1537 1516 1511 1511 1511 1512 1511 1511 1510 1509 1508 1506 1505 1504 1503 1501 1499 1497 1495 1492 1490 1488 1486 1484 1482 1480 1479 1477 1475 1473 1471
1548 1541 1542 1541 1542 1544 1547 1556 1554 1560 1570 1577 1544 1528 1513 1511 1512 1513 1513 1512 1512 1511 1510 1508 1506 1505 1504 1502 1500 1498 1496 1494 1493 1490 1487 1485 1482 1479 1477 1475 1473 1471 1469 1467
1547 1550 1544 1543 1543 1546 1546 1552 1560 1570 1570 1553 1540 1535 1518 1513 1514 1514 1513 1512 1511 1510 1509 1508 1506 1505 1504 1502 1501 1499 1497 1495 1492 1490 1486 1483 1480 1478 1475 1471 1469 1467 1464 1462
1546 1552 1547 1544 1544 1546 1552 1554 1560 1565 1565 1566 1571 1534 1511 1509 1510 1512 1513 1512 1511 1508 1508 1507 1506 1504 1503 1502 1500 1498 1495 1493 1491 1488 1484 1481 1478 1475 1472 1468 1465 1462 1460 1457
1546 1554 1563 1544 1545 1545 1546 1547 1552 1563 1562 1566 1571 1534 1510 1508 1508 1509 1510 1510 1508 1506 1505 1505 1504 1502 1501 1500 1498 1496 1493 1490 1488 1485 1482 1478 1475 1471 1468 1465 1462 1458 1454 1452
1544 1557 1573 1547 1549 1546 1544 1545 1547 1556 1561 1554 1564 1524 1508 1508 1509 1510 1508 1507 1505 1504 1504 1503 1503 1500 1498 1497 1495 1492 1489 1486 1483 1480 1477 1473 1469 1466 1463 1459 1455 1452 1448 1445
1541 1550 1547 1549 1537 1542 1543 1542 1543 1546 1566 1533 1522 1504 1508 1507 1507 1504 1503 1503 1502 1504 1503 1502 1501 1499 1497 1494 1491 1488 1486 1483 1479 1475 1471 1468 1465 1461 1457 1453 1449 1445 1442 1438
1543 1553 1547 1542 1541 1542 1538 1537 1538 1538 1531 1534 1492 1509 1503 1508 1504 1502 1500 1498 1499 1501 1501 1500 1498 1496 1494 1490 1487 1483 1480 1477 1474 1470 1467 1463 1459 1455 1451 1447 1444 1440 1436 1432
1544 1552 1556 1553 1539 1537 1531 1529 1526 1523 1519 1516 1509 1499 1503 1501 1501 1499 1498 1498 1498 1498 1497 1496 1494 1492 1489 1485 1482 1479 1476 1473 1469 1465 1461 1458 1454 1450 1446 1441 1436 1433 1429 1424
1543 1547 1552 1535 1534 1538 1534 1513 1509 1510 1511 1511 1512 1500 1501 1501 1501 1499 1497 1497 1496 1495 1493 1492 1491 1487 1484 1481 1477 1474 1470 1467 1464 1460 1456 1452 1448 1444 1440 1436 1430 1426 1421 1417
1540 1546 1545 1538 1540 1547 1502 1502 1503 1505 1504 1505 1504 1502 1502 1502 1500 1497 1497 1496 1494 1493 1490 1488 1486 1482 1478 1476 1472 1467 1464 1461 1458 1453 1449 1445 1442 1438 1434 1429 1424 1420 1415 1410
1529 1537 1536 1540 1546 1520 1501 1497 1499 1501 1505 1505 1507 1506 1505 1502 1499 1495 1496 1495 1492 1490 1486 1483 1478 1474 1472 1468 1465 1460 1457 1454 1450 1446 1443 1439 1435 1431 1428 1423 1418 1414 1408 1403
1530 1532 1532 1538 1533 1528 1504 1502 1499 1498 1504 1505 1506 1506 1505 1502 1500 1491 1489 1489 1487 1484 1482 1476 1470 1467 1465 1462 1459 1454 1451 1447 1443 1440 1436 1433 1429 1425 1421 1417 1412 1407 1402 1396
1534 1532 1530 1527 1522 1514 1504 1502 1500 1503 1508 1504 1503 1502 1499 1497 1494 1485 1483 1481 1480 1475 1472 1469 1464 1460 1458 1455 1451 1447 1444 1440 1436 1433 1429 1426 1423 1418 1415 1410 1406 1401 1397 1392
1531 1538 1533 1529 1525 1515 1502 1503 1511 1511 1504 1502 1498 1496 1493 1489 1483 1478 1475 1473 1470 1467 1465 1462 1457 1454 1451 1448 1445 1441 1437 1434 1430 1426 1422 1418 1415 1411 1407 1403 1399 1395 1390 1385
1532 1525 1526 1524 1512 1503 1502 1507 1506 1505 1500 1495 1492 1488 1485 1480 1475 1471 1466 1463 1461 1460 1457 1454 1452 1448 1444 1442 1440 1435 1430 1427 1423 1419 1414 1411 1407 1404 1400 1395 1391 1387 1383 1378
1521 1519 1520 1517 1506 1505 1503 1503 1502 1498 1493 1488 1483 1480 1477 1472 1467 1462 1458 1455 1453 1453 1451 1449 1446 1442 1438 1435 1431 1427 1424 1421 1416 1411 1407 1403 1399 1395 1391 1388 1384 1379 1375 1371
1521 1516 1511 1509 1506 1501 1502 1500 1496 1491 1487 1481 1475 1472 1467 1464 1459 1455 1450 1448 1448 1447 1445 1442 1438 1434 1430 1427 1422 1419 1416 1412 1407 1403 1399 1395 1391 1387 1382 1378 1375 1371 1367 1364
1511 1510 1513 1501 1500 1498 1495 1492 1491 1487 1479 1475 1471 1465 1462 1458 1455 1451 1448 1446 1443 1441 1437 1434 1430 1426 1421 1418 1413 1409 1406 1403 1398 1394 1391 1387 1383 1378 1373 1368 1363 1361 1357 1354